When you browse on this site, cookies collect data to enhance your experience and personalize the content and advertising you see.
Visit our Privacy Policy to learn more. By continuing to use the site, you agree to this use of cookies and data.
  • In Lithuania
  • List of Countries
  • For 7 days
  • Water Temperature
  • Weather Map
  • Weather Widgets
  • user-avatar
    Login

    Hourly Weather Ghazni

    Today, 20 February, Thursday

    Time Temperature Precipitation Wind Pressure Humidity
    00:00 -10°C° 0 mm 3 mps 581 mmHg 58%
    01:00 -10°C° 0 mm 3 mps 581 mmHg 56%
    02:00 -12°C° 0 mm 3 mps 581 mmHg 54%
    03:00 -12°C° 0 mm 3 mps 581 mmHg 53%
    04:00 -12°C° 0 mm 3 mps 581 mmHg 53%
    05:00 -12°C° 0 mm 3 mps 580 mmHg 51%
    06:00 -10°C° 0 mm 3 mps 581 mmHg 52%
    07:00 -10°C° 0 mm 3 mps 581 mmHg 52%
    08:00 -10°C° 0 mm 3 mps 582 mmHg 53%
    09:00 -7°C° 0 mm 2 mps 583 mmHg 57%
    10:00 -4°C° 0 mm 2 mps 584 mmHg 62%
    11:00 -2°C° 0 mm 3 mps 584 mmHg 67%
    12:00 -1°C° 0 mm 2 mps 584 mmHg 74%
    13:00 +1°C° 0 mm 2 mps 584 mmHg 81%
    14:00 +2°C° 0 mm 2 mps 584 mmHg 89%
    15:00 +2°C° 0 mm 2 mps 584 mmHg 84%
    16:00 0°C° 0 mm 3 mps 584 mmHg 80%
    17:00 0°C° 0 mm 3 mps 584 mmHg 75%
    18:00 -1°C° 0 mm 3 mps 584 mmHg 72%
    19:00 -4°C° 0 mm 3 mps 584 mmHg 69%
    20:00 -5°C° 0 mm 3 mps 584 mmHg 66%
    21:00 -5°C° 0 mm 3 mps 584 mmHg 63%
    22:00 -6°C° 0 mm 3 mps 584 mmHg 61%
    23:00 -6°C° 0 mm 3 mps 584 mmHg 58%

    Tomorrow, 21 February, Friday

    Time Temperature Precipitation Wind Pressure Humidity
    00:00 -7°C° 0 mm 3 mps 584 mmHg 57%
    01:00 -7°C° 0 mm 3 mps 584 mmHg 56%
    02:00 -7°C° 0 mm 3 mps 583 mmHg 54%
    03:00 -7°C° 0 mm 3 mps 583 mmHg 53%
    04:00 -7°C° 0 mm 3 mps 583 mmHg 52%
    05:00 -6°C° 0 mm 2 mps 583 mmHg 50%
    06:00 -6°C° 0 mm 2 mps 583 mmHg 50%
    07:00 -6°C° 0 mm 2 mps 584 mmHg 49%
    08:00 -5°C° 0 mm 2 mps 584 mmHg 49%
    09:00 -3°C° 0 mm 2 mps 585 mmHg 59%
    10:00 +1°C° 0 mm 1 mps 586 mmHg 69%
    11:00 +3°C° 0 mm 1 mps 587 mmHg 80%
    18:00 +3°C° 0 mm 1 mps 585 mmHg 64%
    19:00 +1°C° 0 mm 1 mps 585 mmHg 62%
    20:00 0°C° 0 mm 1 mps 586 mmHg 59%
    21:00 0°C° 0 mm 1 mps 586 mmHg 59%
    22:00 0°C° 0 mm 1 mps 586 mmHg 60%
    23:00 -2°C° 0 mm 2 mps 586 mmHg 60%

    Day after tomorrow, 22 February, Saturday

    Time Temperature Precipitation Wind Pressure Humidity
    00:00 -3°C° 0 mm 2 mps 586 mmHg 60%
    01:00 -3°C° 0 mm 2 mps 585 mmHg 61%
    02:00 -1°C° 0 mm 1 mps 585 mmHg 61%
    03:00 -2°C° 0 mm 1 mps 585 mmHg 61%
    04:00 -2°C° 0 mm 1 mps 585 mmHg 61%
    05:00 -2°C° 0 mm 1 mps 585 mmHg 61%
    06:00 -4°C° 0 mm 2 mps 585 mmHg 61%
    07:00 -4°C° 0 mm 2 mps 586 mmHg 62%
    08:00 -4°C° 0 mm 2 mps 586 mmHg 63%
    09:00 0°C° 0 mm 1 mps 586 mmHg 72%
    10:00 +1°C° 0 mm 1 mps 587 mmHg 81%
    11:00 +2°C° 0 mm 1 mps 587 mmHg 90%
    12:00 +3°C° 0 mm 1 mps 587 mmHg 92%
    13:00 +3°C° 0 mm 1 mps 587 mmHg 95%
    14:00 +3°C° 0 mm 1 mps 586 mmHg 97%
    15:00 +3°C° 0 mm 1 mps 586 mmHg 90%
    16:00 +3°C° 0 mm 1 mps 586 mmHg 83%
    17:00 +2°C° 0 mm 1 mps 585 mmHg 76%
    18:00 +2°C° 0 mm 1 mps 585 mmHg 74%
    19:00 +1°C° 0 mm 1 mps 586 mmHg 71%
    20:00 -2°C° 0 mm 2 mps 586 mmHg 69%
    21:00 -3°C° 0 mm 2 mps 586 mmHg 67%
    22:00 -3°C° 0 mm 2 mps 586 mmHg 65%
    23:00 -3°C° 0 mm 2 mps 586 mmHg 63%

    23 February, Sunday

    Time Temperature Precipitation Wind Pressure Humidity
    00:00 -4°C° 0 mm 2 mps 585 mmHg 61%
    01:00 -4°C° 0 mm 2 mps 585 mmHg 59%
    02:00 -4°C° 0 mm 2 mps 585 mmHg 57%
    03:00 -5°C° 0 mm 2 mps 584 mmHg 56%
    04:00 -5°C° 0 mm 2 mps 584 mmHg 54%
    05:00 -5°C° 0 mm 2 mps 584 mmHg 52%
    06:00 -5°C° 0 mm 2 mps 584 mmHg 51%
    07:00 -5°C° 0 mm 2 mps 584 mmHg 50%
    08:00 -5°C° 0 mm 2 mps 585 mmHg 49%
    09:00 -3°C° 0 mm 2 mps 585 mmHg 57%
    10:00 +1°C° 0 mm 1 mps 586 mmHg 66%
    11:00 +2°C° 0 mm 1 mps 586 mmHg 75%
    12:00 +3°C° 0 mm 1 mps 586 mmHg 81%
    13:00 +2°C° 0 mm 0 mps 585 mmHg 87%
    14:00 +2°C° 0 mm 0 mps 585 mmHg 92%
    15:00 +2°C° 0 mm 0 mps 585 mmHg 82%
    16:00 +1°C° 0 mm 0 mps 584 mmHg 72%
    17:00 +1°C° 0 mm 0 mps 584 mmHg 62%
    18:00 +1°C° 0 mm 1 mps 584 mmHg 60%
    19:00 0°C° 0 mm 1 mps 584 mmHg 58%
    20:00 -3°C° 0 mm 2 mps 584 mmHg 56%
    21:00 -3°C° 0 mm 2 mps 584 mmHg 56%
    22:00 -3°C° 0 mm 2 mps 584 mmHg 55%
    23:00 -4°C° 0 mm 2 mps 584 mmHg 55%

    24 February, Monday

    Time Temperature Precipitation Wind Pressure Humidity
    00:00 -4°C° 0 mm 2 mps 584 mmHg 55%
    01:00 -4°C° 0 mm 2 mps 583 mmHg 55%
    02:00 -4°C° 0 mm 2 mps 583 mmHg 55%
    03:00 -5°C° 0 mm 2 mps 583 mmHg 54%
    04:00 -5°C° 0 mm 2 mps 582 mmHg 54%
    05:00 -5°C° 0 mm 2 mps 582 mmHg 53%
    06:00 -5°C° 0 mm 2 mps 582 mmHg 54%
    07:00 -5°C° 0 mm 2 mps 583 mmHg 55%
    08:00 -5°C° 0 mm 2 mps 583 mmHg 55%
    09:00 -3°C° 0 mm 2 mps 583 mmHg 62%
    10:00 0°C° 0 mm 1 mps 584 mmHg 68%
    11:00 +2°C° 0 mm 1 mps 585 mmHg 74%
    12:00 +2°C° 0 mm 1 mps 584 mmHg 79%
    13:00 +3°C° 0 mm 1 mps 584 mmHg 84%
    14:00 +2°C° 0 mm 0 mps 583 mmHg 89%
    15:00 +2°C° 0 mm 0 mps 583 mmHg 83%
    16:00 +2°C° 0 mm 0 mps 583 mmHg 76%
    17:00 +1°C° 0 mm 0 mps 583 mmHg 70%
    18:00 +1°C° 0 mm 1 mps 583 mmHg 68%
    19:00 0°C° 0 mm 1 mps 583 mmHg 66%
    20:00 0°C° 0 mm 1 mps 583 mmHg 64%
    21:00 -1°C° 0 mm 1 mps 583 mmHg 63%
    22:00 -1°C° 0 mm 1 mps 583 mmHg 62%
    23:00 -3°C° 0 mm 2 mps 584 mmHg 61%

    25 February, Tuesday

    Time Temperature Precipitation Wind Pressure Humidity
    00:00 -3°C° 0 mm 2 mps 583 mmHg 61%
    01:00 -4°C° 0 mm 2 mps 583 mmHg 60%
    02:00 -4°C° 0 mm 2 mps 583 mmHg 60%
    03:00 -4°C° 0 mm 2 mps 583 mmHg 60%
    04:00 -4°C° 0 mm 2 mps 583 mmHg 60%
    05:00 -4°C° 0 mm 2 mps 583 mmHg 59%
    06:00 -4°C° 0 mm 2 mps 583 mmHg 59%
    07:00 -4°C° 0 mm 2 mps 583 mmHg 59%
    08:00 -4°C° 0 mm 2 mps 583 mmHg 58%
    09:00 -2°C° 0 mm 2 mps 584 mmHg 63%
    10:00 +1°C° 0 mm 1 mps 584 mmHg 68%
    11:00 +3°C° 0 mm 1 mps 585 mmHg 73%
    12:00 +3°C° 0 mm 1 mps 584 mmHg 78%
    13:00 +3°C° 0 mm 1 mps 584 mmHg 83%
    14:00 +3°C° 0 mm 0 mps 584 mmHg 87%
    15:00 +2°C° 0 mm 0 mps 583 mmHg 82%
    16:00 +2°C° 0 mm 0 mps 583 mmHg 76%
    17:00 +2°C° 0 mm 0 mps 583 mmHg 71%
    18:00 +1°C° 0 mm 0 mps 583 mmHg 70%
    19:00 +1°C° 0 mm 0 mps 583 mmHg 68%
    20:00 +1°C° 0 mm 0 mps 584 mmHg 67%
    21:00 0°C° 0 mm 0 mps 584 mmHg 66%
    22:00 +1°C° 0 mm 1 mps 584 mmHg 64%
    23:00 +1°C° 0 mm 1 mps 584 mmHg 63%
    Show more